N735LU EBBR-EKRK

Flight info

Callsign N735LU
Flight time 1h 3m
Altitude 41000
Route NIK L191 VICOT N873 BEDUM DCT DOSUR P729 KOR
Aircraft CL60/M-SBDE1E2E3FGHIJ1J4J5J7M3RWXYZ/LB1V1D1

Departure

Time 2026-05-09 20:19
Airport Brussels Airport (EBBR)

Arrival

Time 2026-05-09 21:22
Airport Copenhagen Roskilde Airport (EKRK)
Time Latitude Longitude Altitude Speed Heading
2026-05-09 19:35 50.89664 4.47021 191 ft 0 kts 154°
2026-05-09 20:03 50.89655 4.47029 191 ft 3 kts 146°
2026-05-09 20:04 50.89657 4.47084 191 ft 6 kts 64°
2026-05-09 20:04 50.89685 4.47172 191 ft 12 kts 64°
2026-05-09 20:04 50.89725 4.47310 191 ft 13 kts 63°
2026-05-09 20:04 50.89784 4.47303 191 ft 3 kts 336°
2026-05-09 20:05 50.89819 4.47279 191 ft 7 kts 335°
2026-05-09 20:05 50.89869 4.47294 191 ft 10 kts 66°
2026-05-09 20:05 50.89903 4.47421 191 ft 14 kts 64°
2026-05-09 20:05 50.89943 4.47558 191 ft 9 kts 64°
2026-05-09 20:06 50.90007 4.47589 191 ft 12 kts 332°
2026-05-09 20:06 50.90070 4.47545 191 ft 9 kts 335°
2026-05-09 20:06 50.90123 4.47506 191 ft 5 kts 334°
2026-05-09 20:06 50.90126 4.47504 191 ft 0 kts 334°
2026-05-09 20:10 50.90137 4.47496 191 ft 6 kts 335°
2026-05-09 20:10 50.90192 4.47457 191 ft 10 kts 335°
2026-05-09 20:10 50.90263 4.47482 191 ft 13 kts 59°
2026-05-09 20:10 50.90276 4.47522 191 ft 0 kts 64°
2026-05-09 20:11 50.90276 4.47523 191 ft 1 kts 64°
2026-05-09 20:11 50.90299 4.47599 191 ft 14 kts 64°
2026-05-09 20:12 50.90347 4.47768 191 ft 18 kts 65°
2026-05-09 20:12 50.90406 4.47968 191 ft 21 kts 63°
2026-05-09 20:12 50.90469 4.48188 191 ft 23 kts 66°
2026-05-09 20:12 50.90540 4.48433 191 ft 25 kts 65°
2026-05-09 20:13 50.90618 4.48702 192 ft 27 kts 65°
2026-05-09 20:13 50.90700 4.48987 191 ft 29 kts 65°
2026-05-09 20:13 50.90786 4.49287 191 ft 30 kts 65°
2026-05-09 20:13 50.90846 4.49496 191 ft 14 kts 66°
2026-05-09 20:14 50.90893 4.49658 191 ft 17 kts 64°
2026-05-09 20:14 50.90941 4.49809 191 ft 12 kts 47°
2026-05-09 20:14 50.90977 4.49856 191 ft 0 kts 37°
2026-05-09 20:15 50.90980 4.49859 191 ft 2 kts 37°
2026-05-09 20:15 50.91004 4.49888 191 ft 6 kts 32°
2026-05-09 20:16 50.91044 4.49916 191 ft 0 kts 21°
2026-05-09 20:16 50.91045 4.49917 191 ft 0 kts 21°
2026-05-09 20:17 50.91065 4.49929 191 ft 10 kts 21°
2026-05-09 20:17 50.91142 4.49913 191 ft 10 kts 283°
2026-05-09 20:18 50.91138 4.49883 191 ft 0 kts 242°
2026-05-09 20:18 50.91047 4.49564 192 ft 84 kts 244°
2026-05-09 20:19 50.90675 4.48260 405 ft 159 kts 246°
2026-05-09 20:19 50.90275 4.46627 1396 ft 171 kts 259°
2026-05-09 20:19 50.90392 4.44853 2461 ft 172 kts 301°
2026-05-09 20:19 50.91169 4.43568 3612 ft 170 kts 325°
2026-05-09 20:20 50.92153 4.42492 4628 ft 187 kts 328°
2026-05-09 20:20 50.93313 4.41328 5664 ft 208 kts 327°
2026-05-09 20:20 50.94633 4.40008 6419 ft 246 kts 327°
2026-05-09 20:20 50.96109 4.38571 7513 ft 267 kts 327°
2026-05-09 20:21 50.97686 4.37032 8901 ft 276 kts 326°
2026-05-09 20:21 50.99321 4.35427 10345 ft 283 kts 326°
2026-05-09 20:21 51.01002 4.33768 11475 ft 300 kts 326°
2026-05-09 20:21 51.02843 4.31943 12409 ft 321 kts 325°
2026-05-09 20:22 51.04768 4.30032 13345 ft 339 kts 325°
2026-05-09 20:22 51.06773 4.28036 14283 ft 353 kts 325°
2026-05-09 20:22 51.08889 4.25925 15254 ft 365 kts 325°
2026-05-09 20:22 51.11056 4.23760 16321 ft 373 kts 325°
2026-05-09 20:23 51.12938 4.21877 17231 ft 378 kts 325°
2026-05-09 20:23 51.15339 4.19468 18300 ft 384 kts 325°
2026-05-09 20:23 51.17545 4.17131 19270 ft 389 kts 321°
2026-05-09 20:23 51.19667 4.14655 20149 ft 394 kts 320°
2026-05-09 20:24 51.21862 4.12068 21030 ft 400 kts 320°
2026-05-09 20:24 51.24094 4.09439 21890 ft 405 kts 320°
2026-05-09 20:24 51.26427 4.07084 22697 ft 414 kts 330°
2026-05-09 20:24 51.29089 4.05666 23452 ft 425 kts 345°
2026-05-09 20:25 51.32002 4.05331 24145 ft 436 kts 355°
2026-05-09 20:25 51.35075 4.05282 24899 ft 440 kts 355°
2026-05-09 20:25 51.38091 4.05223 25628 ft 444 kts 354°
2026-05-09 20:25 51.41227 4.05160 26323 ft 448 kts 354°
2026-05-09 20:26 51.44315 4.05099 26999 ft 450 kts 354°
2026-05-09 20:26 51.47479 4.05371 27602 ft 460 kts
2026-05-09 20:26 51.50553 4.06801 28144 ft 473 kts 18°
2026-05-09 20:26 51.53574 4.09006 28594 ft 480 kts 20°
2026-05-09 20:27 51.56599 4.11252 29056 ft 484 kts 20°
2026-05-09 20:27 51.59635 4.13506 29533 ft 488 kts 20°
2026-05-09 20:27 51.62715 4.15795 30100 ft 488 kts 20°
2026-05-09 20:27 51.65783 4.18080 30746 ft 486 kts 20°
2026-05-09 20:28 51.68855 4.20373 31396 ft 483 kts 20°
2026-05-09 20:28 51.71895 4.22644 31999 ft 481 kts 20°
2026-05-09 20:28 51.74869 4.24869 32526 ft 480 kts 20°
2026-05-09 20:29 51.80827 4.29340 33436 ft 480 kts 20°
2026-05-09 20:29 51.83766 4.31550 33868 ft 479 kts 20°
2026-05-09 20:29 51.86648 4.33721 34241 ft 480 kts 20°
2026-05-09 20:29 51.89586 4.35936 34640 ft 479 kts 20°
2026-05-09 20:30 51.92345 4.38021 34995 ft 478 kts 20°
2026-05-09 20:30 51.95265 4.40230 35329 ft 477 kts 21°
2026-05-09 20:30 51.98156 4.42420 35602 ft 475 kts 21°
2026-05-09 20:30 52.01168 4.44705 35889 ft 475 kts 21°
2026-05-09 20:31 52.04074 4.46911 36164 ft 474 kts 22°
2026-05-09 20:31 52.07046 4.49172 36492 ft 475 kts 22°
2026-05-09 20:31 52.09806 4.51274 36821 ft 474 kts 22°
2026-05-09 20:31 52.12436 4.53281 37051 ft 476 kts 22°
2026-05-09 20:32 52.18359 4.57806 36956 ft 481 kts 22°
2026-05-09 20:32 52.21994 4.60591 37107 ft 481 kts 22°
2026-05-09 20:32 52.23864 4.62027 37279 ft 482 kts 22°
2026-05-09 20:33 52.28030 4.65229 37819 ft 478 kts 23°
2026-05-09 20:33 52.31003 4.67517 38200 ft 474 kts 23°
2026-05-09 20:33 52.33966 4.69802 38510 ft 472 kts 23°
2026-05-09 20:33 52.36912 4.72075 38809 ft 471 kts 24°
2026-05-09 20:34 52.39848 4.74344 39055 ft 470 kts 24°
2026-05-09 20:34 52.42759 4.76598 39256 ft 470 kts 24°
2026-05-09 20:34 52.45715 4.78890 39400 ft 471 kts 24°
2026-05-09 20:34 52.48666 4.81201 39587 ft 472 kts 25°
2026-05-09 20:35 52.51051 4.83394 39702 ft 474 kts 31°
2026-05-09 20:35 52.53980 4.86858 39863 ft 476 kts 39°
2026-05-09 20:35 52.56414 4.90603 40052 ft 476 kts 46°
2026-05-09 20:35 52.58537 4.94725 40234 ft 475 kts 51°
2026-05-09 20:36 52.60576 4.98984 40388 ft 475 kts 51°
2026-05-09 20:36 52.62519 5.03043 40533 ft 475 kts 51°
2026-05-09 20:36 52.64556 5.07300 40665 ft 476 kts 51°
2026-05-09 20:36 52.66604 5.11590 40813 ft 476 kts 51°
2026-05-09 20:37 52.68661 5.15906 40964 ft 475 kts 51°
2026-05-09 20:37 52.70701 5.20193 41088 ft 475 kts 51°
2026-05-09 20:37 52.74757 5.28736 41099 ft 481 kts 51°
2026-05-09 20:38 52.78865 5.37409 41101 ft 485 kts 51°
2026-05-09 20:38 52.83012 5.46213 41097 ft 487 kts 51°
2026-05-09 20:39 52.87135 5.54997 41103 ft 488 kts 51°
2026-05-09 20:39 52.91214 5.63718 41114 ft 488 kts 51°
2026-05-09 20:40 52.95349 5.72588 41099 ft 488 kts 52°
2026-05-09 20:40 52.99484 5.81491 41109 ft 488 kts 52°
2026-05-09 20:41 53.03596 5.90374 41116 ft 487 kts 52°
2026-05-09 20:41 53.07742 5.99364 41101 ft 488 kts 52°
2026-05-09 20:42 53.11843 6.08287 41123 ft 488 kts 52°
2026-05-09 20:42 53.15974 6.17312 41126 ft 487 kts 52°
2026-05-09 20:43 53.20082 6.26315 41111 ft 487 kts 52°
2026-05-09 20:43 53.24171 6.35313 41103 ft 487 kts 52°
2026-05-09 20:44 53.28257 6.44333 41121 ft 486 kts 52°
2026-05-09 20:44 53.32326 6.53350 41117 ft 487 kts 52°
2026-05-09 20:45 53.36686 6.62018 41123 ft 490 kts 43°
2026-05-09 20:45 53.41523 6.69913 41115 ft 495 kts 44°
2026-05-09 20:46 53.46491 6.78065 41122 ft 499 kts 44°
2026-05-09 20:46 53.51466 6.86260 41114 ft 500 kts 44°
2026-05-09 20:47 53.56405 6.94428 41124 ft 499 kts 44°
2026-05-09 20:47 53.61337 7.02613 41106 ft 498 kts 44°
2026-05-09 20:48 53.66233 7.10770 41121 ft 497 kts 44°
2026-05-09 20:48 53.71138 7.18968 41120 ft 497 kts 44°
2026-05-09 20:49 53.76023 7.27165 41124 ft 496 kts 44°
2026-05-09 20:49 53.80955 7.35469 41130 ft 497 kts 44°
2026-05-09 20:50 53.85836 7.43715 41131 ft 497 kts 44°
2026-05-09 20:50 53.90707 7.51974 41131 ft 498 kts 44°
2026-05-09 20:51 53.95626 7.60346 41134 ft 498 kts 44°
2026-05-09 20:51 54.00481 7.68637 41134 ft 498 kts 44°
2026-05-09 20:52 54.05378 7.77030 41133 ft 497 kts 44°
2026-05-09 20:52 54.10226 7.85368 41133 ft 497 kts 44°
2026-05-09 20:53 54.15121 7.93817 41139 ft 497 kts 44°
2026-05-09 20:53 54.19952 8.02185 41131 ft 496 kts 44°
2026-05-09 20:54 54.24822 8.10651 41134 ft 497 kts 44°
2026-05-09 20:54 54.29655 8.19083 41137 ft 497 kts 44°
2026-05-09 20:55 54.34507 8.27578 41137 ft 498 kts 44°
2026-05-09 20:55 54.39297 8.35995 41138 ft 498 kts 44°
2026-05-09 20:56 54.46540 8.48779 41138 ft 497 kts 44°
2026-05-09 20:57 54.51222 8.57080 41138 ft 497 kts 44°
2026-05-09 20:57 54.55731 8.65102 41141 ft 497 kts 45°
2026-05-09 20:58 54.60418 8.73469 41147 ft 498 kts 45°
2026-05-09 20:58 54.65236 8.82101 41145 ft 498 kts 45°
2026-05-09 20:59 54.70018 8.90698 41148 ft 499 kts 45°
2026-05-09 20:59 54.74721 8.99186 41020 ft 502 kts 45°
2026-05-09 21:00 54.79526 9.07891 40056 ft 500 kts 45°
2026-05-09 21:00 54.81938 9.12272 39467 ft 501 kts 45°
2026-05-09 21:00 54.84346 9.16656 38669 ft 502 kts 46°
2026-05-09 21:00 54.86734 9.21107 37923 ft 501 kts 48°
2026-05-09 21:01 54.89003 9.25564 37225 ft 498 kts 49°
2026-05-09 21:01 54.91309 9.30110 36508 ft 494 kts 49°
2026-05-09 21:01 54.93536 9.34506 35914 ft 491 kts 49°
2026-05-09 21:02 54.98021 9.43384 34580 ft 488 kts 49°
2026-05-09 21:02 55.00281 9.47870 33908 ft 484 kts 49°
2026-05-09 21:02 55.02485 9.52250 33282 ft 480 kts 49°
2026-05-09 21:02 55.04676 9.56613 32655 ft 482 kts 49°
2026-05-09 21:03 55.06886 9.61031 32005 ft 486 kts 50°
2026-05-09 21:03 55.08940 9.65693 31361 ft 487 kts 57°
2026-05-09 21:03 55.10648 9.70715 30697 ft 486 kts 64°
2026-05-09 21:03 55.12010 9.76140 30009 ft 486 kts 72°
2026-05-09 21:04 55.13067 9.81802 29356 ft 486 kts 75°
2026-05-09 21:04 55.14063 9.87392 28724 ft 485 kts 75°
2026-05-09 21:04 55.15069 9.93032 28079 ft 481 kts 75°
2026-05-09 21:04 55.16062 9.98617 27440 ft 476 kts 75°
2026-05-09 21:05 55.17041 10.04146 26810 ft 471 kts 75°
2026-05-09 21:05 55.18001 10.09577 26192 ft 466 kts 75°
2026-05-09 21:05 55.18954 10.14986 25572 ft 462 kts 75°
2026-05-09 21:05 55.19896 10.20354 24965 ft 458 kts 75°
2026-05-09 21:06 55.20815 10.25604 24364 ft 454 kts 74°
2026-05-09 21:06 55.21741 10.30907 23758 ft 449 kts 74°
2026-05-09 21:06 55.22655 10.36158 23170 ft 446 kts 74°
2026-05-09 21:06 55.23548 10.41305 22573 ft 441 kts 74°
2026-05-09 21:07 55.24435 10.46438 21989 ft 436 kts 74°
2026-05-09 21:07 55.25309 10.51503 21409 ft 432 kts 74°
2026-05-09 21:07 55.26176 10.56542 20829 ft 428 kts 74°
2026-05-09 21:07 55.27029 10.61517 20262 ft 424 kts 73°
2026-05-09 21:08 55.27883 10.66497 19694 ft 419 kts 74°
2026-05-09 21:08 55.28733 10.71440 19127 ft 415 kts 74°
2026-05-09 21:08 55.29558 10.76247 18579 ft 411 kts 74°
2026-05-09 21:08 55.30376 10.81032 18034 ft 408 kts 74°
2026-05-09 21:09 55.31187 10.85781 17492 ft 404 kts 74°
2026-05-09 21:09 55.32006 10.90593 16953 ft 399 kts 74°
2026-05-09 21:09 55.32793 10.95231 16428 ft 396 kts 74°
2026-05-09 21:09 55.33576 10.99903 15898 ft 392 kts 75°
2026-05-09 21:10 55.34339 11.04495 15376 ft 388 kts 75°
2026-05-09 21:10 55.35098 11.09080 14854 ft 382 kts 75°
2026-05-09 21:10 55.35843 11.13584 14354 ft 372 kts 75°
2026-05-09 21:10 55.36548 11.17860 13854 ft 363 kts 75°
2026-05-09 21:11 55.37250 11.22127 13374 ft 352 kts 75°
2026-05-09 21:12 55.43094 11.34679 11612 ft 312 kts 44°
2026-05-09 21:12 55.44658 11.37271 11107 ft 302 kts 44°
2026-05-09 21:12 55.46185 11.39807 10609 ft 293 kts 44°
2026-05-09 21:12 55.47648 11.42238 10121 ft 287 kts 44°
2026-05-09 21:13 55.49103 11.44659 9722 ft 284 kts 44°
2026-05-09 21:13 55.50577 11.47113 9329 ft 280 kts 44°
2026-05-09 21:13 55.51972 11.49438 8875 ft 273 kts 44°
2026-05-09 21:13 55.53331 11.51703 8488 ft 264 kts 44°
2026-05-09 21:14 55.54655 11.53895 8136 ft 255 kts 44°
2026-05-09 21:14 55.55967 11.56065 7789 ft 255 kts 44°
2026-05-09 21:14 55.57282 11.58241 7437 ft 259 kts 44°
2026-05-09 21:14 55.58599 11.60425 7089 ft 262 kts 44°
2026-05-09 21:15 55.59938 11.62647 6737 ft 264 kts 44°
2026-05-09 21:15 55.61291 11.64886 6386 ft 256 kts 44°
2026-05-09 21:15 55.62595 11.67032 6073 ft 245 kts 45°
2026-05-09 21:15 55.63797 11.69005 5730 ft 234 kts 45°
2026-05-09 21:16 55.65005 11.70989 5270 ft 230 kts 45°
2026-05-09 21:16 55.65981 11.73179 4863 ft 224 kts 69°
2026-05-09 21:16 55.66181 11.75852 4440 ft 219 kts 93°
2026-05-09 21:16 55.66148 11.78524 4015 ft 212 kts 94°
2026-05-09 21:17 55.66110 11.81128 3599 ft 205 kts 94°
2026-05-09 21:17 55.66071 11.83603 3219 ft 198 kts 94°
2026-05-09 21:17 55.65971 11.85959 2979 ft 183 kts 102°
2026-05-09 21:17 55.65605 11.88025 2825 ft 169 kts 115°
2026-05-09 21:18 55.65092 11.89906 2687 ft 169 kts 120°
2026-05-09 21:18 55.64539 11.91743 2522 ft 167 kts 120°
2026-05-09 21:18 55.64002 11.93566 2384 ft 164 kts 119°
2026-05-09 21:18 55.63531 11.95237 2225 ft 139 kts 118°
2026-05-09 21:19 55.62358 11.99507 1685 ft 123 kts 118°
2026-05-09 21:19 55.61985 12.00876 1486 ft 122 kts 118°
2026-05-09 21:20 55.61616 12.02224 1302 ft 121 kts 118°
2026-05-09 21:20 55.61255 12.03541 1154 ft 120 kts 117°
2026-05-09 21:20 55.60951 12.04667 1022 ft 120 kts 117°
2026-05-09 21:20 55.60578 12.05983 893 ft 117 kts 119°
2026-05-09 21:21 55.60207 12.07267 752 ft 116 kts 120°
2026-05-09 21:21 55.59824 12.08537 617 ft 116 kts 117°
2026-05-09 21:21 55.59490 12.09827 420 ft 113 kts 116°
2026-05-09 21:21 55.59140 12.11087 264 ft 119 kts 118°
2026-05-09 21:22 55.58788 12.12331 135 ft 104 kts 117°
2026-05-09 21:22 55.58519 12.13283 134 ft 68 kts 117°
2026-05-09 21:22 55.58360 12.13844 135 ft 26 kts 116°
2026-05-09 21:22 55.58322 12.14051 138 ft 16 kts 85°
2026-05-09 21:23 55.58293 12.14074 138 ft 12 kts 295°
2026-05-09 21:23 55.58340 12.13919 136 ft 17 kts 295°
2026-05-09 21:23 55.58400 12.13699 136 ft 21 kts 296°
2026-05-09 21:23 55.58474 12.13432 134 ft 25 kts 296°
2026-05-09 21:24 55.58557 12.13139 132 ft 27 kts 296°
2026-05-09 21:24 55.58643 12.12830 130 ft 28 kts 296°
2026-05-09 21:24 55.58731 12.12518 132 ft 21 kts 296°
2026-05-09 21:24 55.58794 12.12399 133 ft 7 kts 10°
2026-05-09 21:25 55.58859 12.12451 134 ft 12 kts 26°
2026-05-09 21:25 55.58947 12.12527 136 ft 15 kts 26°
2026-05-09 21:25 55.59026 12.12624 138 ft 11 kts 84°
2026-05-09 21:25 55.58998 12.12751 139 ft 9 kts 115°
2026-05-09 21:26 55.58962 12.12816 140 ft 6 kts 201°
2026-05-09 21:26 55.58932 12.12818 139 ft 4 kts 33°
2026-05-09 21:26 55.58938 12.12823 139 ft 0 kts 25°